{"data":{"norad_id":59174,"intl_designator":"2024-044Y","name":"STARLINK-31283","alt_names":[],"object_type":"PAYLOAD","status":"ACTIVE","operator":null,"country":"US","launch_date":"2024-03-04","launch_site_code":"AFETR","launch_vehicle":null,"mission":null,"orbit_class":"UNKNOWN","rcs_meters":null,"size_class":null,"mass_kg":null,"dimensions":null,"purposes":["comms"],"wikipedia_slug":null,"has_3d_model":false,"image_url":null,"decayed_at":null,"tle_current":{"epoch":"2026-05-25T04:00:03.998880Z","epoch_age_seconds":60407,"freshness":"FRESH","line1":"1 59174U 24044Y   26145.16671295  .00017057  00000+0  62815-3 0  9999","line2":"2 59174  43.0028 348.2108 0002208 273.4260 105.3160 15.27566740  5854","mean_motion":15.2756674,"eccentricity":0.0002208,"inclination_deg":43.0028,"raan_deg":348.2108,"arg_perigee_deg":273.426,"mean_anomaly_deg":105.316,"bstar":0.00062815,"rev_number":585,"period_min":94.267566993505,"perigee_km":481.57384288015,"apogee_km":484.60376019411,"semimajor_km":6861.2258015371,"source":"CELESTRAK","updated_at":"2026-05-25T13:38:18.837328Z"}}}